Flag for Germany Weather past 2 weeks in Friesoythe, Lower Saxony, Germany

Now
54 °F

Cool.


Feels Like: 52 °F
Forecast: 47 / 56 °F
Wind: 7 mph from Southwest

Location: Meppen-Mil

Current Time: Apr 25, 2015 at 8:56:49 PM

Latest Report: Apr 25, 2015 at 8:20 PM


Visibility: 3 mi

Pressure: 29.71 "Hg

Humidity: 94%

Dew point: 52 °F

Location of FriesoytheLocation

Historic Weather in Friesoythe — Graph

°F

Friesoythe temperature yesterday

Maximum temperature yesterday: 68 °F (at 3:20 PM)
Minimum temperature yesterday: 34 °F (at 5:20 AM)
Average temperature yesterday: 53 °F

Past Weeks' High & Low Weather Summary

 TemperatureHumidityPressure
High72 °F (Apr 15, 2:20 PM)100% (Apr 24, 5:20 AM)30.48 "Hg (Apr 24, 5:20 AM)
Low30 °F (Apr 18, 6:20 AM)30% (Apr 20, 5:20 PM)29.68 "Hg (Apr 25, 5:20 PM)
Average50 °F67%30.16 "Hg
* Reported Apr 10 7:20 PM — Apr 25 7:20 PM, Friesoythe, Weather by CustomWeather, © 2015

Note: Actual official high and low records may vary slightly from our data, if they occured in-between our weather recording intervals... More about our weather records

Advertising

Friesoythe weather history for previous 24 hours

 ConditionsComfort  
Time TempWeatherWind HumidityBarometerVisibility
7:20 PM
Sat, Apr 25
55 °FCool.6 mph88%29.71 "Hg4 mi
6:20 PM55 °FCool.8 mph88%29.71 "Hg4 mi
5:20 PM59 °FCool.5 mph68%29.68 "Hg6 mi
4:20 PM57 °FCool.8 mph72%29.71 "Hg5 mi
3:20 PM57 °FCool.12 mph77%29.71 "Hg5 mi
2:20 PM55 °FCool.10 mph82%29.71 "Hg6 mi
1:20 PM54 °FCool.8 mph88%29.74 "Hg2 mi
12:20 PM54 °FCool.9 mph88%29.74 "Hg3 mi
11:20 AM52 °FCool.7 mph88%29.74 "Hg2 mi
10:20 AM52 °FCool.9 mph88%29.74 "Hg3 mi
9:20 AM54 °FCool.6 mph77%29.74 "Hg4 mi
8:20 AM52 °FCool.8 mph82%29.74 "Hg4 mi
7:20 AM52 °FCool.7 mph77%29.74 "Hg5 mi
6:20 AM52 °FCool.5 mph77%29.71 "Hg5 mi
5:20 AM54 °FCool.6 mph72%29.74 "Hg4 mi
4:20 AM54 °FCool.6 mph72%29.74 "Hg4 mi
3:20 AM55 °FRefreshingly cool.6 mph59%29.74 "Hg5 mi
2:20 AM55 °FRefreshingly cool.5 mph59%29.74 "Hg6 mi
1:20 AM52 °FCool.2 mph72%29.74 "Hg4 mi
12:20 AM52 °FCool.2 mph72%29.77 "Hg4 mi
11:20 PM
Fri, Apr 24
52 °FCool.1 mph72%29.77 "Hg4 mi
10:20 PM55 °FCool.1 mph63%29.77 "Hg5 mi
9:20 PM57 °FRefreshingly cool.2 mph55%29.80 "Hg6 mi
8:20 PM63 °FMild.2 mph42%29.77 "Hg6 mi
Weather by CustomWeather, © 2015

See weather overviewHow to use our weather pages